| time (UTC) | temp C | wind direction | speed KPH | gust KPH | rain 1hr cm | rain 24hr cm | rain mn cm | humidity % | barometer mb |
| 20260510234531 | 13 | 237 | 0.0 | 0.0 | 0.00 | 0.00 | 0.00 | 30 | 1012.8 |
| 20260510233027 | 14 | 237 | 0.0 | 0.0 | 0.00 | 0.00 | 0.00 | 27 | 1012.7 |
| 20260510231523 | 15 | 237 | 0.0 | 1.6 | 0.00 | 0.00 | 0.00 | 23 | 1012.5 |
| 20260510230021 | 16 | 206 | 0.0 | 0.0 | 0.00 | 0.00 | 0.00 | 23 | 1012.2 |
| 20260510224517 | 19 | 206 | 0.0 | 1.6 | 0.00 | 0.00 | 0.00 | 20 | 1012.0 |
| 20260510223012 | 21 | 244 | 0.0 | 1.6 | 0.00 | 0.00 | 0.00 | 17 | 1011.7 |
| 20260510221512 | 22 | 306 | 0.0 | 4.8 | 0.00 | 0.00 | 0.00 | 14 | 1011.5 |
| 20260510220011 | 23 | 129 | 0.0 | 9.7 | 0.00 | 0.00 | 0.00 | 13 | 1011.2 |
| 20260510214510 | 25 | 166 | 3.2 | 14.5 | 0.00 | 0.00 | 0.00 | 12 | 1011.1 |
| 20260510213018 | 25 | 114 | 3.2 | 12.9 | 0.00 | 0.00 | 0.00 | 12 | 1011.0 |
| 20260510211513 | 25 | 160 | 1.6 | 8.0 | 0.00 | 0.00 | 0.00 | 11 | 1010.8 |
| 20260510210043 | 26 | 146 | 1.6 | 12.9 | 0.00 | 0.00 | 0.00 | 10 | 1010.7 |
| 20260510204550 | 26 | 151 | 1.6 | 16.1 | 0.00 | 0.00 | 0.00 | 9 | 1010.6 |
| 20260510203042 | 27 | 180 | 8.0 | 20.9 | 0.00 | 0.00 | 0.00 | 8 | 1010.4 |
| 20260510201540 | 28 | 142 | 4.8 | 14.5 | 0.00 | 0.00 | 0.00 | 7 | 1010.4 |
| 20260510200038 | 28 | 219 | 9.7 | 20.9 | 0.00 | 0.00 | 0.00 | 6 | 1010.3 |
| 20260510194529 | 29 | 166 | 6.4 | 17.7 | 0.00 | 0.00 | 0.00 | 6 | 1010.3 |
| 20260510193036 | 30 | 209 | 12.9 | 22.5 | 0.00 | 0.00 | 0.00 | 6 | 1010.2 |
| 20260510191532 | 30 | 158 | 8.0 | 22.5 | 0.00 | 0.00 | 0.00 | 6 | 1010.3 |
| 20260510190002 | 30 | 166 | 8.0 | 17.7 | 0.00 | 0.00 | 0.00 | 5 | 1010.4 |
| 20260510184558 | 30 | 210 | 6.4 | 17.7 | 0.00 | 0.00 | 0.00 | 5 | 1010.5 |
| 20260510183054 | 30 | 220 | 3.2 | 12.9 | 0.00 | 0.00 | 0.00 | 5 | 1010.6 |
| 20260510181552 | 31 | 163 | 3.2 | 12.9 | 0.00 | 0.00 | 0.00 | 5 | 1010.7 |
| 20260510180045 | 31 | 165 | 1.6 | 8.0 | 0.00 | 0.00 | 0.00 | 4 | 1010.8 |
| 20260510174550 | 31 | 146 | 3.2 | 12.9 | 0.00 | 0.00 | 0.00 | 3 | 1011.1 |
| 20260510173036 | 30 | 234 | 0.0 | 3.2 | 0.00 | 0.00 | 0.00 | 3 | 1011.3 |
| 20260510171532 | 30 | 275 | 0.0 | 6.4 | 0.00 | 0.00 | 0.00 | 2 | 1011.7 |
| 20260510170028 | 30 | 148 | 0.0 | 3.2 | 0.00 | 0.00 | 0.00 | 2 | 1012.1 |
| 20260510164530 | 30 | 163 | 0.0 | 1.6 | 0.00 | 0.00 | 0.00 | 2 | 1012.3 |
| 20260510163019 | 29 | 170 | 0.0 | 1.6 | 0.00 | 0.00 | 0.00 | 2 | 1012.6 |
| 20260510161516 | 28 | 282 | 0.0 | 1.6 | 0.00 | 0.00 | 0.00 | 3 | 1012.9 |
| 20260510160010 | 27 | 335 | 0.0 | 1.6 | 0.00 | 0.00 | 0.00 | 3 | 1013.1 |
| 20260510154505 | 26 | 317 | 0.0 | 1.6 | 0.00 | 0.00 | 0.00 | 3 | 1013.3 |
| 20260510153008 | 25 | 341 | 0.0 | 1.6 | 0.00 | 0.00 | 0.00 | 4 | 1013.7 |
| 20260510151609 | 24 | 17 | 0.0 | 3.2 | 0.00 | 0.00 | 0.00 | 4 | 1013.9 |
| 20260510150058 | 23 | 281 | 0.0 | 3.2 | 0.00 | 0.00 | 0.00 | 5 | 1014.2 |
| 20260510144552 | 23 | 315 | 0.0 | 1.6 | 0.00 | 0.00 | 0.00 | 5 | 1014.4 |
| 20260510143046 | 22 | 315 | 0.0 | 1.6 | 0.00 | 0.00 | 0.00 | 6 | 1014.6 |
| 20260510141541 | 21 | 334 | 0.0 | 4.8 | 0.00 | 0.00 | 0.00 | 6 | 1014.6 |
| 20260510140036 | 20 | 349 | 0.0 | 3.2 | 0.00 | 0.00 | 0.00 | 6 | 1014.7 |
| 20260510134536 | 18 | 325 | 0.0 | 4.8 | 0.00 | 0.00 | 0.00 | 8 | 1014.9 |
| 20260510133028 | 16 | 336 | 0.0 | 4.8 | 0.00 | 0.00 | 0.00 | 10 | 1015.2 |
| 20260510131523 | 13 | 17 | 0.0 | 1.6 | 0.00 | 0.00 | 0.00 | 16 | 1015.2 |
| 20260510130019 | 10 | 17 | 0.0 | 3.2 | 0.00 | 0.00 | 0.00 | 24 | 1015.3 |
| 20260510124516 | 6 | 28 | 0.0 | 3.2 | 0.00 | 0.00 | 0.00 | 29 | 1015.4 |
| 20260510123014 | 6 | 278 | 0.0 | 3.2 | 0.00 | 0.00 | 0.00 | 24 | 1015.3 |
| 20260510121513 | 6 | 278 | 0.0 | 3.2 | 0.00 | 0.00 | 0.00 | 24 | 1015.2 |
| 20260510120011 | 7 | 278 | 0.0 | 4.8 | 0.00 | 0.00 | 0.00 | 24 | 1015.1 |
| 20260510114510 | 6 | 280 | 0.0 | 3.2 | 0.00 | 0.00 | 0.00 | 24 | 1015.0 |
| 20260510113009 | 6 | 319 | 0.0 | 1.6 | 0.00 | 0.00 | 0.00 | 23 | 1014.8 |
| 20260510111506 | 6 | 319 | 0.0 | 1.6 | 0.00 | 0.00 | 0.00 | 23 | 1014.6 |
| 20260510110005 | 6 | 319 | 0.0 | 0.0 | 0.00 | 0.00 | 0.00 | 26 | 1014.5 |
| 20260510104505 | 6 | 319 | 0.0 | 3.2 | 0.00 | 0.00 | 0.00 | 24 | 1014.4 |
| 20260510103005 | 6 | 302 | 0.0 | 0.0 | 0.00 | 0.00 | 0.00 | 27 | 1014.3 |
| 20260510101505 | 6 | 346 | 0.0 | 1.6 | 0.00 | 0.00 | 0.00 | 26 | 1014.2 |
| 20260510100001 | 5 | 346 | 0.0 | 0.0 | 0.00 | 0.00 | 0.00 | 28 | 1014.2 |
| 20260510094602 | 5 | 346 | 0.0 | 0.0 | 0.00 | 0.00 | 0.00 | 30 | 1014.1 |
| 20260510093059 | 4 | 346 | 0.0 | 0.0 | 0.00 | 0.00 | 0.00 | 33 | 1014.2 |
| 20260510091559 | 5 | 346 | 0.0 | 3.2 | 0.00 | 0.00 | 0.00 | 35 | 1014.1 |
| 20260510090158 | 5 | 345 | 0.0 | 4.8 | 0.00 | 0.00 | 0.00 | 32 | 1014.0 |
| 20260510084600 | 6 | 327 | 0.0 | 1.6 | 0.00 | 0.00 | 0.00 | 32 | 1014.0 |
| 20260510083104 | 5 | 328 | 0.0 | 4.8 | 0.00 | 0.00 | 0.00 | 31 | 1014.0 |
| 20260510081555 | 4 | 340 | 0.0 | 1.6 | 0.00 | 0.00 | 0.00 | 41 | 1014.2 |
| 20260510080100 | 4 | 340 | 0.0 | 0.0 | 0.00 | 0.00 | 0.00 | 40 | 1014.2 |
| 20260510074607 | 5 | 340 | 0.0 | 0.0 | 0.00 | 0.00 | 0.00 | 36 | 1014.1 |
| 20260510073051 | 5 | 340 | 0.0 | 3.2 | 0.00 | 0.00 | 0.00 | 37 | 1014.0 |
| 20260510071559 | 5 | 344 | 0.0 | 0.0 | 0.00 | 0.00 | 0.00 | 32 | 1014.1 |
| 20260510070050 | 5 | 344 | 0.0 | 3.2 | 0.00 | 0.00 | 0.00 | 35 | 1014.2 |
| 20260510064605 | 5 | 305 | 0.0 | 1.6 | 0.00 | 0.00 | 0.00 | 42 | 1014.4 |
| 20260510063053 | 5 | 280 | 0.0 | 3.2 | 0.00 | 0.00 | 0.00 | 39 | 1014.5 |
| 20260510061546 | 5 | 280 | 0.0 | 4.8 | 0.00 | 0.00 | 0.00 | 38 | 1014.6 |
| 20260510060053 | 5 | 280 | 0.0 | 3.2 | 0.00 | 0.00 | 0.00 | 41 | 1014.5 |
| 20260510054543 | 5 | 280 | 0.0 | 1.6 | 0.00 | 0.00 | 0.00 | 41 | 1014.5 |
| 20260510053042 | 5 | 280 | 0.0 | 3.2 | 0.00 | 0.00 | 0.00 | 44 | 1014.4 |
| 20260510051551 | 6 | 280 | 0.0 | 0.0 | 0.00 | 0.00 | 0.00 | 40 | 1014.3 |
| 20260510050041 | 6 | 280 | 0.0 | 1.6 | 0.00 | 0.00 | 0.00 | 37 | 1014.2 |
| 20260510044539 | 7 | 280 | 0.0 | 0.0 | 0.00 | 0.00 | 0.00 | 36 | 1014.1 |
| 20260510043039 | 7 | 288 | 0.0 | 4.8 | 0.00 | 0.00 | 0.00 | 36 | 1014.0 |
| 20260510041531 | 6 | 69 | 0.0 | 1.6 | 0.00 | 0.00 | 0.00 | 41 | 1014.0 |
| 20260510040028 | 6 | 69 | 0.0 | 0.0 | 0.00 | 0.00 | 0.00 | 40 | 1014.0 |
| 20260510034526 | 7 | 69 | 0.0 | 1.6 | 0.00 | 0.00 | 0.00 | 44 | 1014.0 |
| 20260510033029 | 7 | 69 | 0.0 | 0.0 | 0.00 | 0.00 | 0.00 | 40 | 1013.9 |
| 20260510031525 | 7 | 69 | 0.0 | 0.0 | 0.00 | 0.00 | 0.00 | 43 | 1013.9 |
| 20260510030024 | 7 | 69 | 0.0 | 1.6 | 0.00 | 0.00 | 0.00 | 44 | 1013.8 |
| 20260510024525 | 7 | 69 | 0.0 | 0.0 | 0.00 | 0.00 | 0.00 | 45 | 1013.6 |
| 20260510023023 | 7 | 69 | 0.0 | 3.2 | 0.00 | 0.00 | 0.00 | 44 | 1013.6 |
| 20260510021522 | 7 | 69 | 0.0 | 0.0 | 0.00 | 0.00 | 0.00 | 43 | 1013.6 |
| 20260510020022 | 7 | 69 | 0.0 | 3.2 | 0.00 | 0.00 | 0.00 | 45 | 1013.7 |
| 20260510014523 | 8 | 69 | 0.0 | 0.0 | 0.00 | 0.00 | 0.00 | 47 | 1013.7 |
| 20260510013020 | 8 | 69 | 0.0 | 0.0 | 0.00 | 0.00 | 0.00 | 44 | 1013.6 |
| 20260510011531 | 8 | 69 | 0.0 | 0.0 | 0.00 | 0.00 | 0.00 | 46 | 1013.4 |
| 20260510010019 | 8 | 69 | 0.0 | 0.0 | 0.00 | 0.00 | 0.00 | 46 | 1013.4 |
| 20260510004516 | 8 | 69 | 0.0 | 0.0 | 0.00 | 0.00 | 0.00 | 44 | 1013.2 |
| 20260510003016 | 8 | 69 | 1.6 | 3.2 | 0.00 | 0.00 | 0.00 | 44 | 1013.2 |
| 20260510001515 | 8 | 69 | 0.0 | 1.6 | 0.00 | 0.00 | 0.00 | 43 | 1013.2 |
| 20260510000014 | 9 | 69 | 0.0 | 0.0 | 0.00 | 0.00 | 0.00 | 43 | 1013.1 |